This is the latest recevied weather packets stored in our database for station/object W5ALL-WX. If no packets are shown the sender has not sent any weather packets the latest 10 day(s).
| Time | Temp. | Humidity | Pressure | Rain* | Wind** | Luminosity | Snow |
|---|---|---|---|---|---|---|---|
| 1777437128 | 20° C | 11% | 1016.4 hPa | 0 mm | - | - | - |
| 1777436828 | 18.89° C | 13% | 1016.6 hPa | 0 mm | - | - | - |
| 1777436528 | 18.33° C | 14% | 1016.7 hPa | 0 mm | - | - | - |
| 1777436228 | 18.33° C | 14% | 1016.7 hPa | 0 mm | - | - | - |
| 1777435928 | 18.89° C | 14% | 1016.7 hPa | 0 mm | - | - | - |
| 1777435628 | 18.89° C | 13% | 1016.6 hPa | 0 mm | - | - | - |
| 1777435328 | 18.33° C | 13% | 1016.7 hPa | 0 mm | - | - | - |
| 1777435028 | 18.89° C | 14% | 1016.6 hPa | 0 mm | - | - | - |
| 1777434728 | 18.89° C | 13% | 1016.4 hPa | 0 mm | - | - | - |
| 1777434428 | 20° C | 13% | 1016.4 hPa | 0 mm | - | - | - |
| 1777434128 | 20.56° C | 12% | 1016.4 hPa | 0 mm | - | - | - |
| 1777433828 | 20.56° C | 11% | 1016.4 hPa | 0 mm | - | - | - |
| 1777433528 | 20.56° C | 11% | 1016.4 hPa | 0 mm | - | - | - |
| 1777433228 | 21.11° C | 10% | 1016.3 hPa | 0 mm | - | - | - |
| 1777432928 | 21.11° C | 10% | 1016.2 hPa | 0 mm | - | - | - |
| 1777432628 | 21.11° C | 9% | 1016.2 hPa | 0 mm | - | - | - |
| 1777432328 | 21.67° C | 9% | 1016.2 hPa | 0 mm | - | - | - |
| 1777432027 | 22.22° C | 9% | 1016.1 hPa | 0 mm | - | - | - |
| 1777431728 | 22.78° C | 8% | 1016.1 hPa | 0 mm | - | - | - |
| 1777431427 | 22.78° C | 7% | 1015.9 hPa | 0 mm | - | - | - |
| 1777431127 | 22.78° C | 7% | 1015.9 hPa | 0 mm | - | - | - |
| 1777430828 | 23.33° C | 7% | 1015.7 hPa | 0 mm | - | - | - |
| 1777430528 | 23.33° C | 7% | 1015.7 hPa | 0 mm | - | - | - |
| 1777430228 | 23.33° C | 7% | 1015.7 hPa | 0 mm | - | - | - |
| 1777429928 | 23.89° C | 7% | 1015.7 hPa | 0 mm | - | - | - |
* Rain latest hour (hover to see other rain measurements)
** Current wind speed in m/s (hover to see current wind gust speed)